Location: Gold Fund Mine
(38.3819°N, 119.0996°W)
Time: 18:10:15
(UTC+00:00)

Lacrosse 5 - Pass Details

Date: 18 September 2020
Orbit: 716 x 723 km, 57.0° (Epoch: 19 October)

Event Time Altitude Azimuth Distance (km) Brightness Sun altitude
Exits shadow 12:14:46 19° 301° (WNW) 1,664 3.4 -17.5°
Maximum altitude 12:16:27 22° 328° (NNW) 1,522 3.4 -17.2°
Drops below altitude 10° 12:20:25 10° 20° (NNE) 2,205 4.9 -16.4°
Sets 12:23:18 0° 35° (NE) 3,129 6.0 -15.9°
